When you browse on this site, cookies collect data to enhance your experience and personalize the content and advertising you see.
Visit our Privacy Policy to learn more. By continuing to use the site, you agree to this use of cookies and data.
  • In Portugal
  • List of Countries
  • For 7 days
  • Water Temperature
  • Weather Map
  • Weather Widgets
  • user-avatar
    Login

    Hourly Weather Rokotovo

    Today, 24 January, Friday

    Time Temperature Precipitation Wind Pressure Humidity
    00:00 -2°C° 0.1 mm 3 mps 745 mmHg 87%
    01:00 -3°C° 0.1 mm 4 mps 745 mmHg 85%
    02:00 -1°C° 0 mm 3 mps 744 mmHg 82%
    03:00 -2°C° 0.2 mm 4 mps 743 mmHg 87%
    04:00 -2°C° 0.2 mm 4 mps 742 mmHg 92%
    05:00 -2°C° 0.2 mm 4 mps 741 mmHg 96%
    06:00 -1°C° 0.2 mm 4 mps 741 mmHg 96%
    07:00 -1°C° 0.2 mm 5 mps 740 mmHg 95%
    08:00 0°C° 0 mm 4 mps 740 mmHg 93%
    09:00 0°C° 0 mm 4 mps 740 mmHg 91%
    10:00 +1°C° 0 mm 4 mps 739 mmHg 89%
    11:00 +1°C° 0 mm 4 mps 739 mmHg 87%
    12:00 +1°C° 0 mm 5 mps 739 mmHg 87%
    13:00 +2°C° 0 mm 5 mps 738 mmHg 87%
    14:00 +2°C° 0 mm 5 mps 738 mmHg 87%
    15:00 +2°C° 0 mm 5 mps 738 mmHg 87%
    16:00 +2°C° 0 mm 5 mps 737 mmHg 88%
    17:00 +3°C° 0 mm 4 mps 737 mmHg 89%
    18:00 +2°C° 0.1 mm 5 mps 737 mmHg 89%
    19:00 +2°C° 0.1 mm 5 mps 737 mmHg 90%
    20:00 +2°C° 0.1 mm 5 mps 737 mmHg 90%
    21:00 +2°C° 0.1 mm 5 mps 737 mmHg 89%
    22:00 +1°C° 0.1 mm 5 mps 737 mmHg 88%
    23:00 +1°C° 0.1 mm 4 mps 737 mmHg 87%

    Tomorrow, 25 January, Saturday

    Time Temperature Precipitation Wind Pressure Humidity
    00:00 0°C° 0 mm 4 mps 737 mmHg 88%
    01:00 +1°C° 0 mm 3 mps 737 mmHg 89%
    02:00 0°C° 0 mm 3 mps 737 mmHg 90%
    03:00 0°C° 0 mm 3 mps 737 mmHg 90%
    04:00 0°C° 0 mm 3 mps 737 mmHg 91%
    05:00 0°C° 0 mm 3 mps 736 mmHg 92%
    06:00 -1°C° 0 mm 4 mps 736 mmHg 90%
    07:00 -1°C° 0 mm 4 mps 736 mmHg 88%
    08:00 0°C° 0 mm 4 mps 735 mmHg 86%
    09:00 0°C° 0 mm 5 mps 736 mmHg 81%
    10:00 0°C° 0 mm 5 mps 736 mmHg 76%
    11:00 +1°C° 0 mm 6 mps 736 mmHg 71%
    12:00 -1°C° 0 mm 6 mps 737 mmHg 68%
    13:00 -1°C° 0 mm 6 mps 737 mmHg 64%
    14:00 -1°C° 0 mm 6 mps 737 mmHg 61%
    15:00 -2°C° 0 mm 6 mps 738 mmHg 63%
    16:00 -2°C° 0 mm 5 mps 738 mmHg 65%
    17:00 -2°C° 0 mm 4 mps 739 mmHg 67%
    18:00 -2°C° 0 mm 5 mps 739 mmHg 67%
    19:00 -4°C° 0 mm 5 mps 740 mmHg 68%
    20:00 -4°C° 0 mm 5 mps 740 mmHg 69%
    21:00 -4°C° 0 mm 5 mps 741 mmHg 70%
    22:00 -4°C° 0 mm 5 mps 742 mmHg 72%
    23:00 -3°C° 0 mm 4 mps 742 mmHg 74%

    Day after tomorrow, 26 January, Sunday

    Time Temperature Precipitation Wind Pressure Humidity
    00:00 -4°C° 0 mm 4 mps 743 mmHg 76%
    01:00 -4°C° 0 mm 4 mps 744 mmHg 77%
    02:00 -4°C° 0 mm 3 mps 744 mmHg 79%
    03:00 -4°C° 0 mm 3 mps 745 mmHg 79%
    04:00 -4°C° 0 mm 3 mps 745 mmHg 79%
    05:00 -3°C° 0 mm 2 mps 746 mmHg 80%
    06:00 -3°C° 0 mm 2 mps 746 mmHg 79%
    07:00 -3°C° 0 mm 2 mps 746 mmHg 78%
    08:00 -3°C° 0 mm 2 mps 746 mmHg 77%
    09:00 -2°C° 0 mm 3 mps 746 mmHg 75%
    10:00 -1°C° 0 mm 3 mps 746 mmHg 73%
    11:00 -1°C° 0 mm 4 mps 746 mmHg 71%
    12:00 -1°C° 0.3 mm 4 mps 745 mmHg 79%
    13:00 -1°C° 0.3 mm 5 mps 745 mmHg 86%
    14:00 -1°C° 0.3 mm 5 mps 744 mmHg 94%
    15:00 0°C° 0.2 mm 5 mps 744 mmHg 92%
    16:00 0°C° 0.2 mm 5 mps 744 mmHg 90%
    17:00 +1°C° 0.2 mm 5 mps 744 mmHg 89%
    18:00 +1°C° 0 mm 5 mps 744 mmHg 89%
    19:00 +1°C° 0 mm 5 mps 745 mmHg 88%
    20:00 +1°C° 0 mm 5 mps 745 mmHg 88%
    21:00 +1°C° 0 mm 5 mps 745 mmHg 88%
    22:00 +1°C° 0 mm 5 mps 745 mmHg 89%
    23:00 +1°C° 0 mm 4 mps 745 mmHg 89%

    27 January, Monday

    Time Temperature Precipitation Wind Pressure Humidity
    00:00 +1°C° 0 mm 4 mps 745 mmHg 89%
    01:00 +1°C° 0 mm 4 mps 745 mmHg 89%
    02:00 0°C° 0 mm 4 mps 745 mmHg 90%
    03:00 0°C° 0 mm 4 mps 745 mmHg 91%
    04:00 0°C° 0 mm 4 mps 745 mmHg 92%
    05:00 +1°C° 0 mm 3 mps 745 mmHg 93%
    06:00 +1°C° 0 mm 3 mps 745 mmHg 94%
    07:00 +1°C° 0 mm 3 mps 745 mmHg 95%
    08:00 +1°C° 0 mm 3 mps 745 mmHg 96%
    09:00 +1°C° 0 mm 3 mps 745 mmHg 95%
    10:00 +2°C° 0 mm 3 mps 745 mmHg 94%
    11:00 +2°C° 0 mm 3 mps 745 mmHg 93%
    12:00 +2°C° 0.1 mm 3 mps 745 mmHg 94%
    13:00 +1°C° 0.1 mm 3 mps 745 mmHg 95%
    14:00 +1°C° 0.1 mm 3 mps 745 mmHg 96%
    15:00 +1°C° 0.2 mm 3 mps 745 mmHg 97%
    16:00 +1°C° 0.2 mm 3 mps 745 mmHg 97%
    17:00 +1°C° 0.2 mm 3 mps 745 mmHg 97%
    18:00 +1°C° 0.1 mm 3 mps 745 mmHg 96%
    19:00 +1°C° 0.1 mm 3 mps 744 mmHg 96%
    20:00 +2°C° 0.1 mm 2 mps 744 mmHg 96%
    21:00 +2°C° 0 mm 2 mps 744 mmHg 96%
    22:00 +1°C° 0 mm 2 mps 744 mmHg 96%
    23:00 +1°C° 0 mm 2 mps 744 mmHg 96%

    28 January, Tuesday

    Time Temperature Precipitation Wind Pressure Humidity
    00:00 +1°C° 0 mm 2 mps 744 mmHg 96%
    01:00 +1°C° 0 mm 2 mps 744 mmHg 97%
    02:00 +1°C° 0 mm 2 mps 744 mmHg 97%
    03:00 -1°C° 0 mm 2 mps 744 mmHg 97%
    04:00 -1°C° 0 mm 2 mps 744 mmHg 97%
    05:00 +1°C° 0 mm 1 mps 743 mmHg 97%
    06:00 -1°C° 0 mm 2 mps 743 mmHg 96%
    07:00 -1°C° 0 mm 2 mps 743 mmHg 95%
    08:00 -1°C° 0 mm 2 mps 743 mmHg 94%
    09:00 -1°C° 0 mm 2 mps 743 mmHg 91%
    10:00 +1°C° 0 mm 2 mps 743 mmHg 89%
    11:00 +1°C° 0 mm 2 mps 743 mmHg 86%
    12:00 +1°C° 0 mm 2 mps 743 mmHg 85%
    13:00 +2°C° 0 mm 2 mps 743 mmHg 84%
    14:00 +1°C° 0 mm 3 mps 742 mmHg 83%
    15:00 0°C° 0 mm 3 mps 742 mmHg 86%
    16:00 -1°C° 0 mm 3 mps 742 mmHg 89%
    17:00 -1°C° 0 mm 3 mps 742 mmHg 92%
    18:00 -1°C° 0 mm 3 mps 742 mmHg 92%
    19:00 -1°C° 0 mm 3 mps 742 mmHg 92%
    20:00 -1°C° 0 mm 3 mps 742 mmHg 92%
    21:00 -1°C° 0 mm 3 mps 741 mmHg 92%
    22:00 -1°C° 0 mm 4 mps 741 mmHg 93%
    23:00 -1°C° 0 mm 4 mps 741 mmHg 93%

    29 January, Wednesday

    Time Temperature Precipitation Wind Pressure Humidity
    00:00 -1°C° 0 mm 4 mps 741 mmHg 93%
    01:00 0°C° 0 mm 4 mps 740 mmHg 92%
    02:00 0°C° 0 mm 4 mps 740 mmHg 92%
    03:00 -1°C° 0 mm 4 mps 740 mmHg 91%
    04:00 -1°C° 0 mm 5 mps 739 mmHg 91%
    05:00 -1°C° 0 mm 5 mps 739 mmHg 90%
    06:00 -1°C° 0 mm 5 mps 738 mmHg 90%
    07:00 -1°C° 0 mm 5 mps 738 mmHg 90%
    08:00 -1°C° 0 mm 5 mps 738 mmHg 89%
    09:00 -1°C° 0.1 mm 5 mps 737 mmHg 91%
    10:00 -1°C° 0.1 mm 5 mps 737 mmHg 93%
    11:00 -1°C° 0.1 mm 5 mps 737 mmHg 95%
    12:00 -1°C° 0.3 mm 5 mps 737 mmHg 95%
    13:00 -1°C° 0.3 mm 5 mps 736 mmHg 95%
    14:00 -1°C° 0.3 mm 5 mps 736 mmHg 95%
    15:00 -1°C° 0.3 mm 4 mps 735 mmHg 96%
    16:00 -1°C° 0.3 mm 4 mps 735 mmHg 96%
    17:00 0°C° 0.3 mm 3 mps 735 mmHg 96%
    18:00 0°C° 0.4 mm 3 mps 735 mmHg 96%
    19:00 0°C° 0.4 mm 3 mps 734 mmHg 97%
    20:00 +1°C° 0.4 mm 3 mps 734 mmHg 97%
    21:00 +1°C° 0.2 mm 3 mps 734 mmHg 97%
    22:00 +1°C° 0.2 mm 3 mps 734 mmHg 96%
    23:00 +1°C° 0.2 mm 3 mps 734 mmHg 96%
    Show more